This is the latest recevied weather packets stored in our database for station/object N5PRN. If no packets are shown the sender has not sent any weather packets the latest 10 day(s).
| Time | Temp. | Humidity | Pressure | Rain* | Wind** | Luminosity | Snow |
|---|---|---|---|---|---|---|---|
| 1777491237 | 27.22° C | 85% | 1010.9 hPa | 0 mm | - | 124 W/m² | - |
| 1777490933 | 27.78° C | 84% | 1010.9 hPa | 0 mm | - | 105 W/m² | - |
| 1777490629 | 27.78° C | 84% | 1011 hPa | 0 mm | - | 220 W/m² | - |
| 1777490325 | 27.78° C | 84% | 1011.1 hPa | 0 mm | - | 269 W/m² | - |
| 1777490023 | 27.78° C | 83% | 1010.9 hPa | 0 mm | - | 295 W/m² | - |
| 1777489721 | 27.78° C | 83% | 1010.8 hPa | 0 mm | - | 255 W/m² | - |
| 1777489417 | 27.78° C | 83% | 1011.3 hPa | 0 mm | - | 205 W/m² | - |
| 1777489114 | 27.78° C | 83% | 1011.2 hPa | 0 mm | - | 194 W/m² | - |
| 1777488811 | 27.78° C | 81% | 1011.3 hPa | 0 mm | - | 187 W/m² | - |
| 1777488509 | 27.78° C | 81% | 1011.3 hPa | 0 mm | - | 204 W/m² | - |
| 1777488207 | 28.33° C | 80% | 1011.6 hPa | 0 mm | - | 261 W/m² | - |
| 1777487905 | 28.33° C | 80% | 1011.5 hPa | 0 mm | - | 337 W/m² | - |
| 1777487602 | 28.33° C | 81% | 1011.6 hPa | 0 mm | - | 334 W/m² | - |
| 1777487299 | 27.78° C | 82% | 1011.6 hPa | 0 mm | - | 367 W/m² | - |
| 1777486997 | 27.78° C | 82% | 1011.8 hPa | 0 mm | - | 219 W/m² | - |
| 1777486692 | 27.78° C | 82% | 1012 hPa | 0 mm | - | 180 W/m² | - |
| 1777486391 | 28.33° C | 82% | 1012.2 hPa | 0 mm | - | 203 W/m² | - |
| 1777486087 | 28.33° C | 80% | 1012.2 hPa | 0 mm | - | 230 W/m² | - |
| 1777485784 | 28.33° C | 81% | 1011.9 hPa | 0 mm | - | 375 W/m² | - |
| 1777485479 | 28.33° C | 81% | 1012.1 hPa | 0 mm | - | 326 W/m² | - |
| 1777485176 | 28.33° C | 80% | 1012.2 hPa | 0 mm | - | 597 W/m² | - |
| 1777484872 | 27.78° C | 82% | 1012.4 hPa | 0 mm | - | 558 W/m² | - |
| 1777484569 | 27.78° C | 82% | 1012.6 hPa | 0 mm | - | 338 W/m² | - |
| 1777484266 | 27.22° C | 83% | 1012.5 hPa | 0 mm | - | 248 W/m² | - |
| 1777483962 | 27.78° C | 83% | 1012.6 hPa | 0 mm | - | 240 W/m² | - |
* Rain latest hour (hover to see other rain measurements)
** Current wind speed in m/s (hover to see current wind gust speed)